Tracking 18852 objects as of 23-Nov-2017
HD Live streaming from Space Station
objects crossing your sky now

COSMOS 1135

Track COSMOS 1135 now!
10-day predictions
COSMOS 1135 is classified as:


NORAD ID: 11543
Int'l Code: 1979-084F
Perigee: 1,468.3 km
Apogee: 1,499.7 km
Inclination: 74.0 °
Period: 115.5 minutes
Semi major axis: 7854 km
RCS: 0.7033 m2 (medium)
Launch date: September 25, 1979
Source: Commonwealth of Independent States (former USSR) (CIS)
Launch site: PLESETSK MISSILE AND SPACE COMPLEX (PKMTR)
aabbcc
Your satellite tracking list
Your tracking list is empty




NASA's NSSDC Master Catalog

Two Line Element Set (TLE):
1 11543U 79084F   17326.96452094 +.00000001 +00000-0 +11274-3 0  9999
2 11543 074.0248 264.3946 0019990 232.1490 192.1733 12.47057741737195
Source of the keplerian elements: AFSPC